Weather History for New York, NY

Change the Weather History Date:

Wednesday, December 25, 2013

  Actual Average Record
Temperature  
Mean Temperature 25 °F 36 °F  
Max Temperature 31 °F 42 °F 62 °F (1982)
Min Temperature 19 °F 29 °F -1 °F (1980)
Degree Days  
Heating Degree Days 40 30  
Month to date heating degree days 655 648  
Since 1 July heating degree days 1437 1423  
Cooling Degree Days 0 0  
Month to date cooling degree days 0 0  
Year to date cooling degree days 1402 1214  
Growing Degree Days 0 (Base 50)    
Moisture  
Dew Point 7 °F    
Average Humidity 47    
Maximum Humidity 56    
Minimum Humidity 37    
Precipitation  
Precipitation 0.00 in 0.11 in 1.27 in (1945)
Month to date precipitation 3.26 2.94  
Year to date precipitation 37.09 44.11  
Snow  
Snow 0.00 in 0.20 in 6.10 in (2002)
Month to date snowfall 7.6 3.7  
Since 1 July snowfall 7.8 4.0  
Snow Depth 0.00 in    
Sea Level Pressure  
Sea Level Pressure 30.48 in    
Wind  
Wind Speed 9 mph (NNW)    
Max Wind Speed 28 mph    
Max Gust Speed 33 mph    
Visibility 10 miles    
Events      
T = Trace of Precipitation, MM = Missing Value Source: NWS Daily Summary

Daily Weather History Graph

Daily Weather History Graph

Search for Another Location

Airport:

Trip Planner

Search our weather history database for the weather conditions in past years. The results will help you decide how hot, cold, wet, or windy it might be!

Date:

Astronomy

Dec. 25, 2013 Rise Set
Actual Time 7:18 AM EST 4:33 PM EST
Civil Twilight 6:47 AM EST 5:04 PM EST
Nautical Twilight 6:12 AM EST 5:39 PM EST
Astronomical Twilight 5:39 AM EST 6:12 PM EST
Moon No Moon Rise 11:37 AM EST
Length of Visible Light 10h 17m
Length of Day
9h 15m
Waning Gibbous, 49% of the Moon is Illuminated
Dec 25
Waning Gibbous
Jan 1
New
Jan 7
First Quarter
Jan 15
Full
Jan 24
Last Quarter

Hourly Weather History & Observations

Time (EST) Temp. Windchill Dew Point Humidity Pressure Visibility Wind Dir Wind Speed Gust Speed Precip Events Conditions
12:51 AM 26.1 °F 12.0 °F 8.1 °F 47% 30.36 in 10.0 mi NW 20.7 mph 32.2 mph N/A   Clear
1:51 AM 24.1 °F 9.0 °F 9.0 °F 53% 30.39 in 10.0 mi NW 21.9 mph 29.9 mph N/A   Clear
2:51 AM 23.0 °F 9.6 °F 7.0 °F 50% 30.42 in 10.0 mi NNW 16.1 mph 24.2 mph N/A   Clear
3:51 AM 21.9 °F 7.3 °F 6.1 °F 51% 30.43 in 10.0 mi NNW 18.4 mph 23.0 mph N/A   Clear
4:51 AM 21.0 °F 7.1 °F 7.0 °F 55% 30.44 in 10.0 mi NW 16.1 mph 21.9 mph N/A   Clear
5:51 AM 19.9 °F 6.2 °F 6.1 °F 55% 30.46 in 10.0 mi NNW 15.0 mph 21.9 mph N/A   Clear
6:51 AM 19.9 °F 6.2 °F 6.1 °F 55% 30.49 in 10.0 mi NNW 15.0 mph 20.7 mph N/A   Clear
7:51 AM 19.9 °F 8.6 °F 6.1 °F 55% 30.50 in 10.0 mi NNW 10.4 mph - N/A   Clear
8:51 AM 19.9 °F 7.3 °F 6.1 °F 55% 30.52 in 10.0 mi NW 12.7 mph - N/A   Partly Cloudy
9:51 AM 21.0 °F 11.4 °F 3.9 °F 48% 30.54 in 10.0 mi NNW 8.1 mph - N/A   Partly Cloudy
10:51 AM 23.0 °F 14.7 °F 5.0 °F 46% 30.52 in 10.0 mi NNW 6.9 mph - N/A   Partly Cloudy
11:51 AM 25.0 °F 17.1 °F 5.0 °F 43% 30.51 in 10.0 mi NW 6.9 mph - N/A   Scattered Clouds
12:51 PM 26.1 °F - 5.0 °F 41% 30.49 in 10.0 mi Calm Calm - N/A   Mostly Cloudy
1:51 PM 26.1 °F - 3.9 °F 39% 30.49 in 10.0 mi Calm Calm - N/A   Mostly Cloudy
2:51 PM 27.0 °F - 3.9 °F 37% 30.49 in 10.0 mi Calm Calm - N/A   Mostly Cloudy
3:51 PM 27.0 °F - 5.0 °F 39% 30.50 in 10.0 mi Calm Calm - N/A   Mostly Cloudy
4:51 PM 27.0 °F 21.6 °F 5.0 °F 39% 30.51 in 10.0 mi Variable 4.6 mph - N/A   Mostly Cloudy
5:51 PM 27.0 °F 20.5 °F 5.0 °F 39% 30.50 in 10.0 mi East 5.8 mph - N/A   Mostly Cloudy
6:51 PM 27.0 °F 18.7 °F 5.0 °F 39% 30.51 in 10.0 mi SE 8.1 mph - N/A   Mostly Cloudy
7:51 PM 28.0 °F 20.0 °F 7.0 °F 41% 30.51 in 10.0 mi SSE 8.1 mph - N/A   Overcast
8:51 PM 28.0 °F 20.8 °F 9.0 °F 45% 30.48 in 10.0 mi ESE 6.9 mph - N/A   Overcast
9:51 PM 28.9 °F 21.9 °F 10.9 °F 47% 30.48 in 10.0 mi SE 6.9 mph - N/A   Overcast
10:51 PM 30.0 °F 22.4 °F 15.1 °F 54% 30.46 in 10.0 mi South 8.1 mph - N/A   Overcast
11:51 PM 30.0 °F 22.4 °F 18.0 °F 61% 30.43 in 10.0 mi South 8.1 mph - N/A   Overcast